Regional Weather Roundup
Issued by NWS Grand Forks, ND

Home | Current Version | Previous Version | Text Only | Print | Product List | Glossary On
Versions: 1 2 3 4 5 6 7 8 9 10 11 12 13 14 15 16 17 18 19 20 21 22 23 24 25 26 27 28 29 30 31 32 33 34 35 36 37 38 39 40 41 42 43 44 45 46 47 48 49 50
000
ASUS43 KFGF 290510
RWRFGF
PRAIRIE TO PINES  WEATHER ROUNDUP
NATIONAL WEATHER SERVICE EASTERN NORTH DAKOTA/GRAND FORKS ND
1100 PM CST FRI NOV 28 2014

 **SATELLITE DATA USED TO AUGMENT SKY COVER AT AUTOMATED STATIONS**
 *****  WEATHER ACROSS EASTERN NORTH DAKOTA  *****

CITY           SKY/WX    TMP DP  RH WIND       PRES   REMARKS
GRAND FORKS    CLOUDY    17  12  80 S10       29.58F WCI   5
GRAND FRKS AFB CLOUDY    16  13  85 S10       29.57F WCI   4
GRAND FRKS NWS   N/A     16 N/A N/A S6          N/A  WCI   7
DEVILS LAKE    CLOUDY    14   5  67 S13       29.47F WCI   0
FARGO          CLOUDY    21  14  74 SE15      29.57F WCI   8
WAHPETON ARPT  CLOUDY    19  16  86 SE13      29.60F WCI   7
$$

 ***** WEATHER ACROSS CENTRAL AND WESTERN NORTH DAKOTA  *****

CITY           SKY/WX    TMP DP  RH WIND       PRES   REMARKS
BISMARCK       PTCLDY    17  14  88 SE7       29.43F WCI   8
MINOT          MOCLDY     9   5  84 NE5       29.43F WCI   1
JAMESTOWN      MOCLDY    16  12  84 S13       29.48F WCI   2
MINOT AFB      MOCLDY     9   7  90 SE8       29.43F WCI  -3
GARRISON         N/A     14  11  87 E7        29.39F WCI   4
WILLISTON      CLOUDY    19  15  84 N9        29.43F WCI   8
DICKINSON      CLOUDY    46  31  55 SW14      29.34S
HETTINGER      CLOUDY    42  30  62 CALM      29.40F
$$

 *****  OTHER AIRPORT OBSERVATIONS IN OUR AREA  *****

CITY           SKY/WX    TMP DP  RH WIND       PRES   REMARKS
WALHALLA         N/A     14  14 100 SE7       29.59F WCI   4
GRAFTON AIRPOR CLOUDY    16  12  86 S8        29.58F WCI   5
VALLEY CITY AR CLOUDY    16  16 100 S12       29.51F WCI   3
CANDO          CLOUDY    14  10  85 SE8       29.49F WCI   3
CAVALIER APRT  CLOUDY    16  12  86 SE5       29.59S WCI   9
GWINNER        CLOUDY    21  18  86 SE13      29.53F WCI   9
SHEYENNE NWR     N/A     19  16  87 S14       29.95  WCI   6
ROLLA          CLOUDY    10   9  92 SE7       29.48F WCI   0
 ***** THE ABOVE OBSERVATIONS ARE NON NWS ARE NOT QUALITY
       CONTROLLED AND MAY MIS-REPORT RAIN FOR SNOW...
$$

  *****  WEATHER ACROSS NORTHERN MINNESOTA  *****

CITY           SKY/WX    TMP DP  RH WIND       PRES   REMARKS
FLAG ISLAND    CLOUDY    16  12  86 SE9       29.64R WCI   4
WARROAD        CLOUDY    16  12  86 S5        29.64S WCI   9
ROSEAU         CLOUDY    18  12  79 S8        29.62R WCI   7
HALLOCK        MOCLDY    18  12  79 SE9       29.60F WCI   6
THF RVR FALLS  CLOUDY    18  12  79 SE7       29.59F WCI   8
BAUDETTE       CLOUDY    16  12  84 SE6       29.61F WCI   7
WASKISH        CLOUDY    18  12  79 SE9       29.61F WCI   6
CROOKSTON      MOCLDY    18  14  86 S14       29.61F WCI   4
STEPHEN NDAWN    N/A     18  12  79 S9          N/A  WCI   6
GREENBUSH NDAW   N/A     16  12  86 SE9         N/A  WCI   4
$$
  *****  WEATHER ACROSS CENTRAL AND WEST MINNESOTA  *****

CITY           SKY/WX    TMP DP  RH WIND       PRES   REMARKS
FOSSTON        CLOUDY    18  12  79 S9        29.59F WCI   6
BEMIDJI        FLURRIES  16  12  84 S10       29.61F WCI   4
PARK RAPIDS    CLOUDY    16  13  88 SE14      29.60F WCI   2
ELBOW LAKE     CLOUDY    19  17  89 SE14      29.60S WCI   6
WADENA         CLOUDY    16  12  86 SE12      29.60F WCI   3
DETROIT LAKES  CLOUDY    19  16  86 S16       29.59F WCI   5
MOORHEAD       CLOUDY    19  18  93 S16G23    29.58F WCI   5
FERGUS FALLS   CLOUDY    19  14  79 SE14      29.63F WCI   6
MORRIS MN      PTCLDY    21  18  86 SE18      29.60S WCI   6
STAPLES        CLOUDY    16  12  86 SE7       29.62F WCI   6
$$
  *****  WEATHER ELSEWHERE ACROSS MINNESOTA  *****

CITY           SKY/WX    TMP DP  RH WIND       PRES   REMARKS
DULUTH         CLOUDY    17  12  80 SE9       29.70F WCI   6
INTRNTL FALLS  LGT SNOW  17  14  88 SE9       29.64F FOG     WCI   6
ELY            FLURRIES  18  16  93 S7        29.70F WCI   8
CLOQUET        CLOUDY    18  12  79 SE5       29.71F WCI  11
WHEATON        CLOUDY    18  16  93 SE12      29.61F WCI   5
BRAINERD       CLOUDY    17  13  84 SE6       29.67F WCI   9
HIBBING        CLOUDY    17  11  77 S9        29.69F WCI   6
ALEXANDRIA     CLOUDY    19  15  84 SE13      29.60F WCI   6
SAINT CLOUD    CLOUDY    21  15  78 SE8       29.67F WCI  11
MINNEAPOLIS    CLOUDY    23  18  81 E8        29.72F WCI  14
$$

  *****  WEATHER ACROSS SOUTH DAKOTA  *****

CITY           SKY/WX    TMP DP  RH WIND       PRES   REMARKS
SIOUX FALLS    CLEAR     24  22  91 E5        29.56F WCI  18
BROOKINGS      NOT AVBL
WATERTOWN      PTCLDY    21  19  92 S13       29.53F WCI   9
HURON          CLEAR     26  24  92 SE5       29.54F WCI  20
SISSETON         N/A     18  18 100 S17       29.57F WCI   3
ABERDEEN       PTCLDY    17  13  84 SE8       29.51F WCI   7
MITCHELL       CLEAR     26  25  96 SE5       29.54F FOG     WCI  20
PIERRE         PTCLDY    30  26  85 SE8       29.46F WCI  22
MOBRIDGE       PTCLDY    26  22  84 SE9       29.43F WCI  17
RAPID CITY     PTCLDY    49  22  34 W6        29.49F
$$

  *****  SOME WEATHER IN NEARBY STATES *****

CITY           SKY/WX    TMP DP  RH WIND       PRES   REMARKS
GLASGOW MT     CLOUDY    13   6  74 NW18      29.53R WCI  -4
GREAT FALLS MT CLOUDY     1  -4  79 NW14      29.59R WCI -17
CHEYENNE WY    MOCLDY    44  14  29 SW12      29.77F
SCOTTSBLUFF NE CLOUDY    54  18  24 SW14      29.67F
OMAHA NE       MOCLDY    37  31  78 SE8       29.62S
DES MOINES IA  PTCLDY    37  30  75 SE6       29.66F
DAVENPORT IA   CLEAR     31  27  85 SE14      29.78F WCI  21
CHICAGO IL     CLOUDY    33  28  81 S10       29.88F WCI  25
EAU CLAIRE WI  MOCLDY    23  18  81 E7        29.76F WCI  15
LA CROSSE WI   MOCLDY    25  20  81 SE8       29.77F WCI  16
$$

  *****  SOME NATIONAL WEATHER *****

CITY           SKY/WX    TMP DP  RH WIND       PRES   REMARKS
LA GUARDIA NY  MOCLDY    29  13  51 NW9       30.27F WCI  20
RALEIGH NC     PTCLDY    29  23  78 CALM      30.30S
ATLANTA GA     CLEAR     38  20  48 S3        30.26F
NEW ORLEANS LA CLEAR     50  45  83 SE7       30.25F
OKLAHOMA CITY  MOCLDY    58  44  60 S17       29.82F
ALBUQUERQUE NM CLEAR     42  19  39 SE7       30.08S
SALT LAKE CITY MOCLDY    59  13  16 S23G35    29.76F
LOS ANGELES CA PTCLDY    62  57  83 SE3       29.90S
BOISE ID       MOCLDY    51  34  52 SW5       29.63F
SEATTLE WA     LGT RAIN  38  35  89 SE10      29.52S
$$

*** WEATHER ACROSS MANITOBA...SASKATCHEWAN AND ONTARIO ***
                ***ONTARIO***

CITY           SKY/WX    TMP DP  RH WIND       PRES   REMARKS
GERALDTON      CLOUDY    -2  -6  84 NE5       29.90F WCI -12
THUNDER BAY    NOT AVBL
SIOUX LOOKOUT  LGT SNOW   9   3  78 E7        29.75F WCI  -3
TORONTO        CLOUDY    25  12  58 CALM      30.18S
BIG TROUT LK   CLOUDY   -17 -20  83 VRB2      29.96F
PICKLE LAKE    NOT AVBL
DRYDEN         LGT SNOW  10   9  92 E9        29.67F WCI  -2
KENORA         LGT SNOW  10   9  92 E10       29.64F DRFTSNOWWCI  -3
$$
                *** MANITOBA***

CITY           SKY/WX    TMP DP  RH WIND       PRES   REMARKS
BRANDON        FLURRIES   7   3  85 E13       29.54F WCI  -9
DAUPHIN        LGT SNOW   7   3  85 NE9       29.63F WCI  -7
ISLAND LAKE    FLURRIES  -8 -17  65 NE5       29.90F WCI -19
PILOT MOUND      N/A     10   9  92 SE9         N/A  WCI  -2
THE PAS        LGT SNOW  -6 -11  77 E6        29.81F VSB 1   WCI -18
THOMPSON       NOT AVBL
WINNIPEG       LGT SNOW  12   9  85 SE10      29.63F WCI  -1
LYNN LAKE      CLOUDY   -13 -18  77 N3        29.85F
CHURCHILL      CLEAR    -18 -24  76 W8        29.90F WCI -37
GILLAM         CLOUDY   -17 -22  76 SW3       29.94F
$$
                ***SASKATCHEWAN***

CITY           SKY/WX    TMP DP  RH WIND       PRES   REMARKS
ESTEVAN        NOT AVBL
KINDERSLEY     LGT SNOW  -4  -9  77 NW16      29.65S DRFTSNOWWCI -25
LLOYDMINSTER   FLURRIES -11 -17  77 NW12      29.70R WCI -31
PRINCE ALBERT  LGT SNOW  -6 -11  77 NE8       29.70F WCI -21
REGINA         FLURRIES  12   9  85 NW7       29.50R WCI   2
YORKTON        LGT SNOW   3   0  85 E12       29.54F WCI -13
N. BATTLEFORD  FLURRIES  -2  -8  78 NW8       29.70R WCI -17
LA RONGE       LGT SNOW  -8 -11  84 N8        29.83S WCI -23
SASKATOON      LGT SNOW  -4  -9  77 N12       29.66S DRFTSNOWWCI -22
SWIFT CURRENT  LGT SNOW  -2  -6  84 NW22G29   29.55S VSB 3/4 WCI -26
$$
NOTE: THESE ARE AUTOMATED STATIONS WITH LIMITED QUALITY CONTROL
      "FAIR" INDICATES FEW OR NO CLOUDS BELOW 12,000 FEET WITH NO
      SIGNIFICANT WEATHER AND/OR OBSTRUCTIONS TO VISIBILITY.
      SKY/WX - SKY CONDITION AND SIGNIFICANT WEATHER.
      TMP - AIR TEMPERATURE.    DP   - DEWPOINT TEMPERATURE.
      RH  - RELATIVE HUMIDITY.  PRES - PRESSURE.
      HX  - HEAT INDEX.         WCI  - WIND CHILL INDEX.
$



USA.gov is the U.S. government's official web portal to all federal, state and local government web resources and services.